| time (UTC) | temp F | wind direction | speed MPH | gust MPH | rain 1hr in | rain 24hr in | rain mn in | humidity % | barometer mb |
| 20260507141530 | 50 | 229 | 3.0 | 8.0 | 0.00 | 0.00 | 0.00 | 49 | 1014.5 |
| 20260507140036 | 48 | 317 | 4.0 | 10.0 | 0.00 | 0.00 | 0.00 | 53 | 1014.6 |
| 20260507134530 | 47 | 277 | 2.0 | 7.0 | 0.00 | 0.00 | 0.00 | 54 | 1014.9 |
| 20260507133037 | 46 | 275 | 2.0 | 8.0 | 0.00 | 0.00 | 0.00 | 54 | 1014.9 |
| 20260507131538 | 44 | 223 | 1.0 | 9.0 | 0.00 | 0.00 | 0.00 | 59 | 1014.9 |
| 20260507130036 | 43 | 256 | 2.0 | 8.0 | 0.00 | 0.00 | 0.00 | 69 | 1014.9 |
| 20260507124532 | 40 | 304 | 2.0 | 6.0 | 0.00 | 0.00 | 0.00 | 69 | 1014.6 |
| 20260507123034 | 37 | 217 | 2.0 | 7.0 | 0.00 | 0.00 | 0.00 | 78 | 1014.3 |
| 20260507121533 | 35 | 0 | 1.0 | 8.0 | 0.00 | 0.00 | 0.00 | 86 | 1014.5 |
| 20260507120033 | 33 | 229 | 1.0 | 6.0 | 0.00 | 0.00 | 0.00 | 89 | 1014.5 |
| 20260507114530 | 31 | 0 | 1.0 | 6.0 | 0.00 | 0.00 | 0.00 | 89 | 1014.5 |
| 20260507113031 | 29 | 0 | 0.0 | 1.0 | 0.00 | 0.00 | 0.00 | 87 | 1014.2 |
| 20260507111532 | 29 | 0 | 0.0 | 0.0 | 0.00 | 0.00 | 0.00 | 85 | 1014.0 |
| 20260507110032 | 29 | 0 | 0.0 | 0.0 | 0.00 | 0.00 | 0.00 | 84 | 1014.0 |
| 20260507104531 | 29 | 0 | 0.0 | 0.0 | 0.00 | 0.00 | 0.00 | 84 | 1014.1 |
| 20260507103038 | 29 | 0 | 0.0 | 0.0 | 0.00 | 0.00 | 0.00 | 83 | 1014.0 |
| 20260507101530 | 29 | 0 | 0.0 | 0.0 | 0.00 | 0.00 | 0.00 | 82 | 1014.0 |
| 20260507100031 | 29 | 0 | 0.0 | 0.0 | 0.00 | 0.00 | 0.00 | 81 | 1013.9 |
| 20260507094533 | 29 | 0 | 0.0 | 0.0 | 0.00 | 0.00 | 0.00 | 79 | 1014.2 |
| 20260507093032 | 30 | 0 | 0.0 | 0.0 | 0.00 | 0.00 | 0.00 | 78 | 1014.2 |
| 20260507091538 | 30 | 0 | 0.0 | 0.0 | 0.00 | 0.00 | 0.00 | 77 | 1014.2 |
| 20260507090034 | 30 | 0 | 0.0 | 0.0 | 0.00 | 0.00 | 0.00 | 77 | 1014.3 |
| 20260507084541 | 31 | 0 | 0.0 | 0.0 | 0.00 | 0.00 | 0.00 | 76 | 1014.0 |
| 20260507083028 | 31 | 0 | 0.0 | 0.0 | 0.00 | 0.00 | 0.00 | 76 | 1013.8 |
| 20260507081530 | 32 | 0 | 0.0 | 0.0 | 0.00 | 0.00 | 0.00 | 76 | 1013.7 |
| 20260507080040 | 32 | 0 | 0.0 | 0.0 | 0.00 | 0.00 | 0.00 | 76 | 1014.0 |
| 20260507074530 | 32 | 0 | 0.0 | 0.0 | 0.00 | 0.00 | 0.00 | 76 | 1014.3 |
| 20260507073030 | 33 | 0 | 0.0 | 2.0 | 0.00 | 0.00 | 0.00 | 76 | 1014.4 |
| 20260507071531 | 33 | 0 | 0.0 | 1.0 | 0.00 | 0.00 | 0.00 | 75 | 1014.3 |
| 20260507070046 | 33 | 0 | 0.0 | 3.0 | 0.00 | 0.00 | 0.00 | 75 | 1014.5 |
| 20260507064532 | 33 | 0 | 0.0 | 2.0 | 0.00 | 0.00 | 0.00 | 74 | 1014.6 |
| 20260507063035 | 34 | 0 | 0.0 | 1.0 | 0.00 | 0.00 | 0.00 | 73 | 1014.4 |
| 20260507061532 | 34 | 0 | 0.0 | 1.0 | 0.00 | 0.00 | 0.00 | 71 | 1014.6 |
| 20260507060033 | 34 | 0 | 0.0 | 2.0 | 0.00 | 0.00 | 0.00 | 70 | 1014.6 |
| 20260507054532 | 35 | 0 | 0.0 | 0.0 | 0.00 | 0.00 | 0.00 | 69 | 1014.7 |
| 20260507053033 | 36 | 0 | 0.0 | 0.0 | 0.00 | 0.00 | 0.00 | 68 | 1014.8 |
| 20260507051532 | 37 | 0 | 0.0 | 0.0 | 0.00 | 0.00 | 0.00 | 66 | 1014.9 |
| 20260507050041 | 38 | 0 | 0.0 | 0.0 | 0.00 | 0.00 | 0.00 | 63 | 1014.8 |
| 20260507044530 | 39 | 0 | 0.0 | 0.0 | 0.00 | 0.00 | 0.00 | 61 | 1014.8 |
| 20260507043028 | 41 | 0 | 0.0 | 0.0 | 0.00 | 0.00 | 0.00 | 60 | 1014.7 |
| 20260507041533 | 41 | 0 | 0.0 | 2.0 | 0.00 | 0.00 | 0.00 | 56 | 1014.6 |
| 20260507040036 | 42 | 304 | 0.0 | 4.0 | 0.00 | 0.00 | 0.00 | 55 | 1014.9 |
| 20260507034530 | 43 | 0 | 2.0 | 5.0 | 0.00 | 0.00 | 0.00 | 54 | 1014.9 |
| 20260507033030 | 43 | 0 | 1.0 | 9.0 | 0.00 | 0.00 | 0.00 | 53 | 1014.9 |
| 20260507031532 | 43 | 286 | 2.0 | 10.0 | 0.00 | 0.00 | 0.00 | 53 | 1014.9 |
| 20260507030028 | 43 | 290 | 2.0 | 7.0 | 0.00 | 0.00 | 0.00 | 54 | 1014.9 |
| 20260507024535 | 44 | 280 | 1.0 | 6.0 | 0.00 | 0.00 | 0.00 | 54 | 1014.7 |
| 20260507023032 | 44 | 253 | 1.0 | 7.0 | 0.00 | 0.00 | 0.00 | 52 | 1014.3 |
| 20260507021536 | 45 | 261 | 0.0 | 8.0 | 0.00 | 0.00 | 0.00 | 51 | 1014.2 |
| 20260507020031 | 46 | 0 | 1.0 | 8.0 | 0.00 | 0.00 | 0.00 | 49 | 1013.9 |
| 20260507014531 | 46 | 270 | 1.0 | 9.0 | 0.00 | 0.00 | 0.00 | 48 | 1013.7 |
| 20260507013033 | 47 | 269 | 3.0 | 9.0 | 0.00 | 0.00 | 0.00 | 48 | 1013.6 |
| 20260507011541 | 48 | 261 | 1.0 | 9.0 | 0.00 | 0.00 | 0.00 | 47 | 1013.4 |
| 20260507010041 | 49 | 261 | 3.0 | 12.0 | 0.00 | 0.00 | 0.00 | 46 | 1013.3 |
| 20260507004531 | 50 | 321 | 4.0 | 11.0 | 0.00 | 0.00 | 0.00 | 45 | 1013.2 |
| 20260507003031 | 51 | 223 | 3.0 | 9.0 | 0.00 | 0.00 | 0.00 | 44 | 1013.2 |
| 20260507001549 | 51 | 319 | 2.0 | 13.0 | 0.00 | 0.00 | 0.00 | 44 | 1013.0 |
| 20260507000037 | 52 | 323 | 1.0 | 16.0 | 0.00 | 0.00 | 0.00 | 43 | 1012.8 |
| 20260506234536 | 52 | 265 | 6.0 | 14.0 | 0.00 | 0.00 | 0.00 | 42 | 1012.7 |
| 20260506233030 | 52 | 302 | 6.0 | 16.0 | 0.00 | 0.00 | 0.00 | 43 | 1012.6 |
| 20260506231533 | 53 | 294 | 3.0 | 13.0 | 0.00 | 0.00 | 0.00 | 42 | 1012.5 |
| 20260506230030 | 53 | 295 | 4.0 | 14.0 | 0.00 | 0.00 | 0.00 | 43 | 1012.5 |
| 20260506224529 | 54 | 227 | 6.0 | 16.0 | 0.00 | 0.00 | 0.00 | 40 | 1012.5 |
| 20260506223032 | 54 | 286 | 4.0 | 17.0 | 0.00 | 0.00 | 0.00 | 40 | 1012.3 |
| 20260506221536 | 54 | 318 | 7.0 | 15.0 | 0.00 | 0.00 | 0.00 | 40 | 1012.2 |
| 20260506220032 | 55 | 246 | 4.0 | 21.0 | 0.00 | 0.00 | 0.00 | 40 | 1012.1 |
| 20260506214529 | 56 | 242 | 5.0 | 15.0 | 0.00 | 0.00 | 0.00 | 38 | 1012.1 |
| 20260506213030 | 56 | 308 | 5.0 | 15.0 | 0.00 | 0.00 | 0.00 | 38 | 1012.0 |
| 20260506211540 | 56 | 319 | 5.0 | 14.0 | 0.00 | 0.00 | 0.00 | 39 | 1011.9 |
| 20260506210040 | 56 | 5 | 6.0 | 12.0 | 0.00 | 0.00 | 0.00 | 39 | 1011.9 |
| 20260506204533 | 56 | 269 | 2.0 | 9.0 | 0.00 | 0.00 | 0.00 | 40 | 1011.9 |
| 20260506203032 | 56 | 329 | 4.0 | 15.0 | 0.00 | 0.00 | 0.00 | 36 | 1012.0 |
| 20260506201537 | 57 | 291 | 4.0 | 14.0 | 0.00 | 0.00 | 0.00 | 35 | 1012.1 |
| 20260506200032 | 57 | 212 | 3.0 | 13.0 | 0.00 | 0.00 | 0.00 | 36 | 1012.2 |
| 20260506194530 | 57 | 270 | 6.0 | 11.0 | 0.00 | 0.00 | 0.00 | 37 | 1012.3 |
| 20260506193042 | 57 | 329 | 4.0 | 11.0 | 0.00 | 0.00 | 0.00 | 34 | 1012.3 |
| 20260506191530 | 57 | 315 | 6.0 | 14.0 | 0.00 | 0.00 | 0.00 | 39 | 1012.4 |
| 20260506190031 | 57 | 209 | 6.0 | 16.0 | 0.00 | 0.00 | 0.00 | 36 | 1012.4 |
| 20260506184532 | 57 | 312 | 4.0 | 14.0 | 0.00 | 0.00 | 0.00 | 36 | 1012.3 |
| 20260506183033 | 57 | 248 | 5.0 | 11.0 | 0.00 | 0.00 | 0.00 | 38 | 1012.2 |
| 20260506181540 | 56 | 274 | 2.0 | 20.0 | 0.00 | 0.00 | 0.00 | 38 | 1012.2 |
| 20260506180032 | 57 | 198 | 3.0 | 17.0 | 0.00 | 0.00 | 0.00 | 36 | 1012.3 |
| 20260506174534 | 56 | 280 | 3.0 | 13.0 | 0.00 | 0.00 | 0.00 | 38 | 1012.4 |
| 20260506173053 | 55 | 325 | 6.0 | 13.0 | 0.00 | 0.00 | 0.00 | 38 | 1012.3 |
| 20260506171539 | 55 | 279 | 8.0 | 16.0 | 0.00 | 0.00 | 0.00 | 35 | 1012.6 |
| 20260506170048 | 56 | 301 | 3.0 | 16.0 | 0.00 | 0.00 | 0.00 | 37 | 1012.8 |
| 20260506164533 | 56 | 249 | 5.0 | 12.0 | 0.00 | 0.00 | 0.00 | 37 | 1012.7 |
| 20260506163033 | 55 | 187 | 5.0 | 14.0 | 0.00 | 0.00 | 0.00 | 37 | 1012.7 |
| 20260506161530 | 55 | 263 | 7.0 | 15.0 | 0.00 | 0.00 | 0.00 | 36 | 1012.7 |
| 20260506160034 | 55 | 265 | 4.0 | 12.0 | 0.00 | 0.00 | 0.00 | 40 | 1012.8 |
| 20260506154533 | 56 | 247 | 2.0 | 10.0 | 0.00 | 0.00 | 0.00 | 39 | 1012.8 |
| 20260506153029 | 55 | 197 | 3.0 | 12.0 | 0.00 | 0.00 | 0.00 | 38 | 1012.9 |
| 20260506151532 | 55 | 223 | 4.0 | 15.0 | 0.00 | 0.00 | 0.00 | 44 | 1012.9 |
| 20260506150031 | 54 | 0 | 3.0 | 12.0 | 0.00 | 0.00 | 0.00 | 42 | 1012.9 |
| 20260506144529 | 54 | 229 | 2.0 | 10.0 | 0.00 | 0.00 | 0.00 | 41 | 1012.9 |
| 20260506143029 | 55 | 202 | 2.0 | 10.0 | 0.00 | 0.00 | 0.00 | 44 | 1013.0 |